#timestamp,LO_Frequency,Hit,StdDev 
1581311595.1,286046995.1,P
1581311615.8,286046997.4,P
1581311635.7,286046995.7,P
1581311655.5,286046995.7,Y
1581311675.4,286046999.0,P
1581311695.2,286046998.6,N
1581311715.0,286046999.3,N
1581311715.9,286046999.3,N
1581311735.8,286046999.6,N
1581311755.6,286046999.4,N
1581311775.4,286046999.5,N
1581311795.3,286046996.8,N
1581311815.1,286046997.0,N
1581311835.9,286046997.8,N
1581311855.7,286046999.3,N
1581311875.5,286046997.2,N
1581311895.4,286046997.4,N
1581311915.2,286046994.9,Y
1581311935.0,286046999.5,P
1581311936.0,286046999.5,N
1581311955.8,286046996.8,P
1581311975.6,286046997.3,N
1581311995.5,286046996.5,Y
1581312015.3,286047000.2,P
1581312035.1,286046999.9,N
1581312055.9,286047000.5,N
1581312075.7,286047000.5,N
1581312095.6,286047002.3,N
1581312115.4,286047002.0,N
1581312135.2,286047001.9,N
1581312155.1,286047002.2,N
1581312156.0,286047002.2,N
1581312175.8,286047000.1,N
1581312195.6,286047000.4,N
1581312215.5,286046998.1,N
1581312235.3,286046998.2,N
1581312255.1,286047000.3,N
1581312275.9,286047002.5,N
1581312295.7,286047002.0,N
1581312315.6,286047002.0,N
1581312335.4,286047002.8,N
1581312355.2,286047000.3,N
1581312375.1,286047000.6,N
1581312376.0,286047000.6,N
1581312395.8,286046998.8,N
1581312415.6,286046997.0,N
1581312435.5,286046999.3,N
1581312455.3,286046999.4,N
1581312475.2,286046998.3,N
1581312495.9,286047000.2,N
1581312515.7,286047000.1,N
1581312535.6,286047002.0,N
1581312555.4,286047001.8,N
1581312575.2,286047001.6,N
1581312595.1,286047001.4,N
1581312596.0,286047001.4,N
1581312615.8,286047001.5,N
1581312635.7,286047001.4,N
1581312655.5,286046999.8,N
1581312675.3,286047002.6,N
1581312695.2,286046999.7,N
1581312715.0,286047000.3,N
1581312715.9,286047000.3,N
1581312735.7,286047001.1,N
1581312755.6,286046997.0,N
1581312775.4,286046998.5,N
1581312795.3,286046998.5,N
1581312815.1,286046998.4,N
1581312816.0,286046998.4,N
1581312835.8,286046999.3,N
1581312855.7,286046996.5,N
1581312875.5,286046999.3,N
1581312895.3,286046999.4,N
1581312915.2,286046999.6,N
1581312935.0,286046996.7,N
1581312935.9,286046996.7,N
1581312955.8,286046998.1,N
1581312975.6,286046999.2,N
1581312995.4,286046999.5,N
1581313015.3,286047000.8,N
1581313035.1,286046999.9,N
1581313055.8,286047000.7,N
1581313075.7,286046998.7,N
1581313095.5,286046999.4,N
1581313115.4,286046997.4,N
1581313135.2,286046998.0,N
1581313155.0,286046997.9,N
1581313155.9,286046997.9,N
1581313175.8,286046996.0,N
1581313195.6,286046993.3,Y
1581313215.5,286046995.8,P
1581313235.3,286046995.7,N
1581313255.1,286046995.2,P
1581313275.9,286046995.7,N
1581313295.7,286046995.6,Y
1581313315.5,286046998.3,P
1581313335.4,286046999.5,N
1581313355.2,286046999.1,N
1581313375.1,286046999.2,N
1581313376.0,286046999.2,N
1581313395.8,286046999.0,N
1581313415.6,286046999.4,N
1581313435.5,286046999.0,N
1581313455.3,286046996.9,Y
1581313475.1,286046998.9,P
1581313495.9,286046998.8,P
1581313515.7,286046998.4,P
1581313535.6,286046999.3,Y
1581313555.4,286046998.6,P
1581313575.2,286047001.2,P
1581313595.1,286047000.8,N
1581313596.0,286047000.8,N
1581313615.8,286046998.5,N
1581313635.7,286047000.7,N
1581313655.5,286046998.3,N
1581313675.3,286046996.5,N
1581313695.2,286046999.2,N
1581313715.9,286046999.2,N
1581313735.7,286046999.0,N
1581313755.6,286046999.1,N
1581313775.4,286046997.0,N
1581313795.3,286046999.6,N
1581313815.1,286046997.4,N
1581313816.0,286046997.4,N
1581313835.8,286046997.5,N
1581313855.7,286046997.6,N
1581313875.5,286046997.4,N
1581313895.3,286046995.4,Y
1581313915.2,286046996.6,P
1581313935.0,286046999.4,N
1581313935.9,286046999.4,N
1581313955.8,286046999.6,N
1581313975.6,286046997.2,N
1581313995.4,286046997.6,N
1581314015.3,286046997.3,N
1581314035.1,286046997.0,N
1581314055.8,286046997.1,N
1581314075.7,286046997.8,N
1581314095.5,286046997.1,N
1581314115.4,286046997.2,N
1581314135.2,286046995.4,Y
1581314155.0,286046998.8,P
1581314155.9,286046998.8,N
1581314175.8,286046998.1,P
1581314195.6,286046998.7,Y
1581314215.5,286046999.9,P
1581314235.3,286047000.6,N
1581314255.1,286047000.4,N
1581314275.9,286047000.5,N
1581314295.7,286046998.2,N
1581314315